星链-3705 (STARLINK-3705 )

导读

STARLINK-3705是美国太空探索技术公司星链卫星互联网项目的卫星,于2022年3月19日发射。它隶属于近地轨道卫星星座,承担为全球提供高速互联网服务的任务,补充扩展了星链星座的覆盖范围与服务容量,助力星链实现全球无缝网络覆盖的建设目标。

Basic Information
目录编号:
52103
目录名称:
STARLINK-3705
国际标识:
2022-029R
轨道中心:
EARTH
卫星名称:
星链-3705
卫星全名:
星链-3705 (STARLINK-3705 )
卫星状态:
在轨 (已飞行1551 天)
发射日期:
2022-03-19 UTC
国别 :
美国 (US)
星等 :
--
Orbit Information
数据来源 国际轨道数据 AOE轨道数据
星历时间 2026-06-17T03:10:16+0800
22小时前
查看轨道信息
2026-06-17T02:00:00+0800
23小时前
查看轨道信息
半长轴 6917.897km 6917.89km
偏心率 0.0001307 0.0001649
轨道倾角 53.161° 53.161°
近地点辐角 91.986° 98.119°
升交点赤经 354.108° 354.327°
平近点角 268.128° 356.832°
近地点 538.855km 538.612km
远地点 540.665km 540.894km
周期 95.438分钟 95.438分钟
每日圈数 15.088346 15.08837
Detailed Information
固有亮度:
5
最大亮度:
2.5
卫星平台:
Starlink v1.5
覆盖范围:
全球
运营商:
太空探索技术公司
运营商所在国:
美国
制造商(研发单位):
太空探索技术公司
制造商所在国:
美国
使用方式:
暂无
Satellite Introduction
星链(Starlink)计划是由太空探索技术公司(SpaceX)提出的一个巨型低轨卫星互联网星座项目,计划在2019年至2024年间在太空搭建由约1.2万颗卫星组成的“星链”网络,其中1584颗将部署在地球上空550千米处的近地轨道,并从2020年开始工作。该卫星仍在工作。
2D Orbit Map
3D Orbit Map
Orbit Altitude Analysis Chart
Orbit Inclination Analysis Chart
Orbit Comprehensive Analysis Chart
View Comprehensive Chart